"Time","Value","Approval","myLocation"
"2023-11-15 22:00",20.712,"Working","OW517"
"2023-11-15 23:00",20.7119983581944,"Working","OW517"
"2023-11-16 00:00",20.7139967163889,"Working","OW517"
"2023-11-16 01:00",20.7159950745833,"Working","OW517"
"2023-11-16 02:00",20.7169934327777,"Working","OW517"
"2023-11-16 03:00",20.7189917909721,"Working","OW517"
"2023-11-16 04:00",20.7199901491666,"Working","OW517"
"2023-11-16 05:00",20.721988507361,"Working","OW517"
"2023-11-16 06:00",20.7229868655554,"Working","OW517"
"2023-11-16 07:00",20.7249852237499,"Working","OW517"
"2023-11-16 08:00",20.7269835819443,"Working","OW517"
"2023-11-16 09:00",20.7269819401387,"Working","OW517"
"2023-11-16 10:00",20.7279802983331,"Working","OW517"
"2023-11-16 11:00",20.7259786565276,"Working","OW517"
"2023-11-16 12:00",20.723977014722,"Working","OW517"
"2023-11-16 13:00",20.7209753729164,"Working","OW517"
"2023-11-16 14:00",20.7199737311108,"Working","OW517"
"2023-11-16 15:00",20.7179720893053,"Working","OW517"
"2023-11-16 16:00",20.7159704474997,"Working","OW517"
"2023-11-16 17:00",20.7169688056941,"Working","OW517"
"2023-11-16 18:00",20.7149671638886,"Working","OW517"
"2023-11-16 19:00",20.714965522083,"Working","OW517"
"2023-11-16 20:00",20.7149638802774,"Working","OW517"
"2023-11-16 21:00",20.7139622384718,"Working","OW517"
"2023-11-16 22:00",20.7149605966663,"Working","OW517"
"2023-11-16 23:00",20.7139589548607,"Working","OW517"
"2023-11-17 00:00",20.7129573130551,"Working","OW517"
"2023-11-17 01:00",20.7139556712495,"Working","OW517"
"2023-11-17 02:00",20.713954029444,"Working","OW517"
"2023-11-17 03:00",20.7139523876384,"Working","OW517"
"2023-11-17 04:00",20.7149507458328,"Working","OW517"
"2023-11-17 05:00",20.7149491040273,"Working","OW517"
"2023-11-17 06:00",20.7169474622217,"Working","OW517"
"2023-11-17 07:00",20.7169458204161,"Working","OW517"
"2023-11-17 08:00",20.7179441786105,"Working","OW517"
"2023-11-17 09:00",20.719942536805,"Working","OW517"
"2023-11-17 10:00",20.7209408949994,"Working","OW517"
"2023-11-17 11:00",20.7209392531938,"Working","OW517"
"2023-11-17 12:00",20.7199376113883,"Working","OW517"
"2023-11-17 13:00",20.7189359695827,"Working","OW517"
"2023-11-17 14:00",20.7159343277771,"Working","OW517"
"2023-11-17 15:00",20.7149326859715,"Working","OW517"
"2023-11-17 16:00",20.713931044166,"Working","OW517"
"2023-11-17 17:00",20.7129294023604,"Working","OW517"
"2023-11-17 18:00",20.7139277605548,"Working","OW517"
"2023-11-17 19:00",20.7139261187492,"Working","OW517"
"2023-11-17 20:00",20.7129244769437,"Working","OW517"
"2023-11-17 21:00",20.7139228351381,"Working","OW517"
"2023-11-17 22:00",20.7129211933325,"Working","OW517"
"2023-11-17 23:00",20.712919551527,"Working","OW517"
"2023-11-18 00:00",20.7129179097214,"Working","OW517"
"2023-11-18 01:00",20.7119162679158,"Working","OW517"
"2023-11-18 02:00",20.7109146261102,"Working","OW517"
"2023-11-18 03:00",20.7099129843047,"Working","OW517"
"2023-11-18 04:00",20.7099113424991,"Working","OW517"
"2023-11-18 05:00",20.7089097006935,"Working","OW517"
"2023-11-18 06:00",20.7079080588879,"Working","OW517"
"2023-11-18 07:00",20.7089064170824,"Working","OW517"
"2023-11-18 08:00",20.7089047752768,"Working","OW517"
"2023-11-18 09:00",20.7079031334712,"Working","OW517"
"2023-11-18 10:00",20.7069014916657,"Working","OW517"
"2023-11-18 11:00",20.7048998498601,"Working","OW517"
"2023-11-18 12:00",20.7038982080545,"Working","OW517"
"2023-11-18 13:00",20.7028965662489,"Working","OW517"
"2023-11-18 14:00",20.6998949244434,"Working","OW517"
"2023-11-18 15:00",20.6978932826378,"Working","OW517"
"2023-11-18 16:00",20.6968916408322,"Working","OW517"
"2023-11-18 17:00",20.6948899990267,"Working","OW517"
"2023-11-18 18:00",20.6928883572211,"Working","OW517"
"2023-11-18 19:00",20.6908867154155,"Working","OW517"
"2023-11-18 20:00",20.6888850736099,"Working","OW517"
"2023-11-18 21:00",20.6868834318044,"Working","OW517"
"2023-11-18 22:00",20.6838817899988,"Working","OW517"
"2023-11-18 23:00",20.6818801481932,"Working","OW517"
"2023-11-19 00:00",20.6818785063876,"Working","OW517"
"2023-11-19 01:00",20.6798768645821,"Working","OW517"
"2023-11-19 02:00",20.6778752227765,"Working","OW517"
"2023-11-19 03:00",20.6758735809709,"Working","OW517"
"2023-11-19 04:00",20.6748719391654,"Working","OW517"
"2023-11-19 05:00",20.6718702973598,"Working","OW517"
"2023-11-19 06:00",20.6698686555542,"Working","OW517"
"2023-11-19 07:00",20.6688670137486,"Working","OW517"
"2023-11-19 08:00",20.6688653719431,"Working","OW517"
"2023-11-19 09:00",20.6668637301375,"Working","OW517"
"2023-11-19 10:00",20.6668620883319,"Working","OW517"
"2023-11-19 11:00",20.6668604465263,"Working","OW517"
"2023-11-19 12:00",20.6668588047208,"Working","OW517"
"2023-11-19 13:00",20.6688571629152,"Working","OW517"
"2023-11-19 14:00",20.6688555211096,"Working","OW517"
"2023-11-19 15:00",20.6678538793041,"Working","OW517"
"2023-11-19 16:00",20.6708522374985,"Working","OW517"
"2023-11-19 17:00",20.6728505956929,"Working","OW517"
"2023-11-19 18:00",20.6758489538873,"Working","OW517"
"2023-11-19 19:00",20.6798473120818,"Working","OW517"
"2023-11-19 20:00",20.6848456702762,"Working","OW517"
"2023-11-19 21:00",20.6898440284706,"Working","OW517"
"2023-11-19 22:00",20.6908423866651,"Working","OW517"
"2023-11-19 23:00",20.6958407448595,"Working","OW517"
"2023-11-20 00:00",20.7028391030539,"Working","OW517"
"2023-11-20 01:00",20.7108374612483,"Working","OW517"
"2023-11-20 02:00",20.7158358194428,"Working","OW517"
"2023-11-20 03:00",20.7208341776372,"Working","OW517"
"2023-11-20 04:00",20.7258325358316,"Working","OW517"
"2023-11-20 05:00",20.729830894026,"Working","OW517"
"2023-11-20 06:00",20.7338292522205,"Working","OW517"
"2023-11-20 07:00",20.7378276104149,"Working","OW517"
"2023-11-20 08:00",20.7418259686093,"Working","OW517"
"2023-11-20 09:00",20.7448243268038,"Working","OW517"
"2023-11-20 10:00",20.7478226849982,"Working","OW517"
"2023-11-20 11:00",20.7498210431926,"Working","OW517"
"2023-11-20 12:00",20.752819401387,"Working","OW517"
"2023-11-20 13:00",20.7558177595815,"Working","OW517"
"2023-11-20 14:00",20.7558161177759,"Working","OW517"
"2023-11-20 15:00",20.7558144759703,"Working","OW517"
"2023-11-20 16:00",20.7568128341648,"Working","OW517"
"2023-11-20 17:00",20.7568111923592,"Working","OW517"
"2023-11-20 18:00",20.7578095505536,"Working","OW517"
"2023-11-20 19:00",20.754807908748,"Working","OW517"
"2023-11-20 20:00",20.7558062669425,"Working","OW517"
"2023-11-20 21:00",20.7558046251369,"Working","OW517"
"2023-11-20 22:00",20.7548029833313,"Working","OW517"
"2023-11-20 23:00",20.7558013415257,"Working","OW517"
"2023-11-21 00:00",20.7547996997202,"Working","OW517"
"2023-11-21 01:00",20.7547980579146,"Working","OW517"
"2023-11-21 02:00",20.755796416109,"Working","OW517"
"2023-11-21 03:00",20.7527947743035,"Working","OW517"
"2023-11-21 04:00",20.7497931324979,"Working","OW517"
"2023-11-21 05:00",20.7497914906923,"Working","OW517"
"2023-11-21 06:00",20.7467898488867,"Working","OW517"
"2023-11-21 07:00",20.7447882070812,"Working","OW517"
"2023-11-21 08:00",20.7437865652756,"Working","OW517"
"2023-11-21 09:00",20.74378492347,"Working","OW517"
"2023-11-21 10:00",20.7427832816644,"Working","OW517"
"2023-11-21 11:00",20.7417816398589,"Working","OW517"
"2023-11-21 12:00",20.7447799980533,"Working","OW517"
"2023-11-21 13:00",20.7447783562477,"Working","OW517"
"2023-11-21 14:00",20.7467767144422,"Working","OW517"
"2023-11-21 15:00",20.7467750726366,"Working","OW517"
"2023-11-21 16:00",20.747773430831,"Working","OW517"
"2023-11-21 17:00",20.7477717890254,"Working","OW517"
"2023-11-21 18:00",20.7497701472199,"Working","OW517"
"2023-11-21 19:00",20.7497685054143,"Working","OW517"
"2023-11-21 20:00",20.7487668636087,"Working","OW517"
"2023-11-21 21:00",20.7497652218032,"Working","OW517"
"2023-11-21 22:00",20.7497635799976,"Working","OW517"
"2023-11-21 23:00",20.750761938192,"Working","OW517"
"2023-11-22 00:00",20.7517602963864,"Working","OW517"
"2023-11-22 01:00",20.7537586545809,"Working","OW517"
"2023-11-22 02:00",20.7547570127753,"Working","OW517"
"2023-11-22 03:00",20.7567553709697,"Working","OW517"
"2023-11-22 04:00",20.7577537291641,"Working","OW517"
"2023-11-22 05:00",20.7587520873586,"Working","OW517"
"2023-11-22 06:00",20.760750445553,"Working","OW517"
"2023-11-22 07:00",20.7607488037474,"Working","OW517"
"2023-11-22 08:00",20.7607471619419,"Working","OW517"
"2023-11-22 09:00",20.7627455201363,"Working","OW517"
"2023-11-22 10:00",20.7637438783307,"Working","OW517"
"2023-11-22 11:00",20.7647422365251,"Working","OW517"
"2023-11-22 12:00",20.7657405947196,"Working","OW517"
"2023-11-22 13:00",20.769738952914,"Working","OW517"
"2023-11-22 14:00",20.7717373111084,"Working","OW517"
"2023-11-22 15:00",20.7727356693029,"Working","OW517"
"2023-11-22 16:00",20.7757340274973,"Working","OW517"
"2023-11-22 17:00",20.7777323856917,"Working","OW517"
"2023-11-22 18:00",20.7817307438861,"Working","OW517"
"2023-11-22 19:00",20.7827291020806,"Working","OW517"
"2023-11-22 20:00",20.783727460275,"Working","OW517"
"2023-11-22 21:00",20.7847258184694,"Working","OW517"
"2023-11-22 22:00",20.7877241766638,"Working","OW517"
"2023-11-22 23:00",20.7897225348583,"Working","OW517"
"2023-11-23 00:00",20.7927208930527,"Working","OW517"
"2023-11-23 01:00",20.7957192512471,"Working","OW517"
"2023-11-23 02:00",20.7987176094416,"Working","OW517"
"2023-11-23 03:00",20.801715967636,"Working","OW517"
"2023-11-23 04:00",20.8037143258304,"Working","OW517"
"2023-11-23 05:00",20.8057126840248,"Working","OW517"
"2023-11-23 06:00",20.8077110422193,"Working","OW517"
"2023-11-23 07:00",20.8087094004137,"Working","OW517"
"2023-11-23 08:00",20.8097077586081,"Working","OW517"
"2023-11-23 09:00",20.8097061168025,"Working","OW517"
"2023-11-23 10:00",20.809704474997,"Working","OW517"
"2023-11-23 11:00",20.8107028331914,"Working","OW517"
"2023-11-23 12:00",20.8117011913858,"Working","OW517"
"2023-11-23 13:00",20.8136995495803,"Working","OW517"
"2023-11-23 14:00",20.8146979077747,"Working","OW517"
"2023-11-23 15:00",20.8166962659691,"Working","OW517"
"2023-11-23 16:00",20.8186946241635,"Working","OW517"
"2023-11-23 17:00",20.820692982358,"Working","OW517"
"2023-11-23 18:00",20.8216913405524,"Working","OW517"
"2023-11-23 19:00",20.8226896987468,"Working","OW517"
"2023-11-23 20:00",20.8226880569413,"Working","OW517"
"2023-11-23 21:00",20.8226864151357,"Working","OW517"
"2023-11-23 22:00",20.8226847733301,"Working","OW517"
"2023-11-23 23:00",20.8226831315245,"Working","OW517"
"2023-11-24 00:00",20.824681489719,"Working","OW517"
"2023-11-24 01:00",20.8256798479134,"Working","OW517"
"2023-11-24 02:00",20.8276782061078,"Working","OW517"
"2023-11-24 03:00",20.8286765643022,"Working","OW517"
"2023-11-24 04:00",20.8296749224967,"Working","OW517"
"2023-11-24 05:00",20.8326732806911,"Working","OW517"
"2023-11-24 06:00",20.8326716388855,"Working","OW517"
"2023-11-24 07:00",20.83266999708,"Working","OW517"
"2023-11-24 08:00",20.8316683552744,"Working","OW517"
"2023-11-24 09:00",20.8306667134688,"Working","OW517"
"2023-11-24 10:00",20.8286650716632,"Working","OW517"
"2023-11-24 11:00",20.8276634298577,"Working","OW517"
"2023-11-24 12:00",20.8266617880521,"Working","OW517"
"2023-11-24 13:00",20.8256601462465,"Working","OW517"
"2023-11-24 14:00",20.8266585044409,"Working","OW517"
"2023-11-24 15:00",20.8266568626354,"Working","OW517"
"2023-11-24 16:00",20.8276552208298,"Working","OW517"
"2023-11-24 17:00",20.8286535790242,"Working","OW517"
"2023-11-24 18:00",20.8296519372187,"Working","OW517"
"2023-11-24 19:00",20.8296502954131,"Working","OW517"
"2023-11-24 20:00",20.8296486536075,"Working","OW517"
"2023-11-24 21:00",20.8296470118019,"Working","OW517"
"2023-11-24 22:00",20.8276453699964,"Working","OW517"
"2023-11-24 23:00",20.8286437281908,"Working","OW517"
"2023-11-25 00:00",20.8296420863852,"Working","OW517"
"2023-11-25 01:00",20.8296404445797,"Working","OW517"
"2023-11-25 02:00",20.8306388027741,"Working","OW517"
"2023-11-25 03:00",20.8336371609685,"Working","OW517"
"2023-11-25 04:00",20.8346355191629,"Working","OW517"
"2023-11-25 05:00",20.8346338773574,"Working","OW517"
"2023-11-25 06:00",20.8346322355518,"Working","OW517"
"2023-11-25 07:00",20.8356305937462,"Working","OW517"
"2023-11-25 08:00",20.8346289519406,"Working","OW517"
"2023-11-25 09:00",20.8336273101351,"Working","OW517"
"2023-11-25 10:00",20.8306256683295,"Working","OW517"
"2023-11-25 11:00",20.8286240265239,"Working","OW517"
"2023-11-25 12:00",20.8266223847184,"Working","OW517"
"2023-11-25 13:00",20.8266207429128,"Working","OW517"
"2023-11-25 14:00",20.8256191011072,"Working","OW517"
"2023-11-25 15:00",20.8266174593016,"Working","OW517"
"2023-11-25 16:00",20.8276158174961,"Working","OW517"
"2023-11-25 17:00",20.8276141756905,"Working","OW517"
"2023-11-25 18:00",20.8286125338849,"Working","OW517"
"2023-11-25 19:00",20.8296108920793,"Working","OW517"
"2023-11-25 20:00",20.8296092502738,"Working","OW517"
"2023-11-25 21:00",20.8306076084682,"Working","OW517"
"2023-11-25 22:00",20.8286059666626,"Working","OW517"
"2023-11-25 23:00",20.8296043248571,"Working","OW517"
"2023-11-26 00:00",20.8296026830515,"Working","OW517"
"2023-11-26 01:00",20.8306010412459,"Working","OW517"
"2023-11-26 02:00",20.8305993994403,"Working","OW517"
"2023-11-26 03:00",20.8305977576348,"Working","OW517"
"2023-11-26 04:00",20.8315961158292,"Working","OW517"
"2023-11-26 05:00",20.8335944740236,"Working","OW517"
"2023-11-26 06:00",20.8335928322181,"Working","OW517"
"2023-11-26 07:00",20.8325911904125,"Working","OW517"
"2023-11-26 08:00",20.8315895486069,"Working","OW517"
"2023-11-26 09:00",20.8295879068013,"Working","OW517"
"2023-11-26 10:00",20.8275862649958,"Working","OW517"
"2023-11-26 11:00",20.8245846231902,"Working","OW517"
"2023-11-26 12:00",20.8215829813846,"Working","OW517"
"2023-11-26 13:00",20.819581339579,"Working","OW517"
"2023-11-26 14:00",20.8165796977735,"Working","OW517"
"2023-11-26 15:00",20.8165780559679,"Working","OW517"
"2023-11-26 16:00",20.8165764141623,"Working","OW517"
"2023-11-26 17:00",20.8155747723568,"Working","OW517"
"2023-11-26 18:00",20.8155731305512,"Working","OW517"
"2023-11-26 19:00",20.8155714887456,"Working","OW517"
"2023-11-26 20:00",20.81456984694,"Working","OW517"
"2023-11-26 21:00",20.8135682051345,"Working","OW517"
"2023-11-26 22:00",20.8105665633289,"Working","OW517"
"2023-11-26 23:00",20.8095649215233,"Working","OW517"
"2023-11-27 00:00",20.8095632797178,"Working","OW517"
"2023-11-27 01:00",20.8075616379122,"Working","OW517"
"2023-11-27 02:00",20.8085599961066,"Working","OW517"
"2023-11-27 03:00",20.808558354301,"Working","OW517"
"2023-11-27 04:00",20.8085567124955,"Working","OW517"
"2023-11-27 05:00",20.8085550706899,"Working","OW517"
"2023-11-27 06:00",20.8085534288843,"Working","OW517"
"2023-11-27 07:00",20.8075517870787,"Working","OW517"
"2023-11-27 08:00",20.8055501452732,"Working","OW517"
"2023-11-27 09:00",20.8025485034676,"Working","OW517"
"2023-11-27 10:00",20.799546861662,"Working","OW517"
"2023-11-27 11:00",20.7965452198565,"Working","OW517"
"2023-11-27 12:00",20.7935435780509,"Working","OW517"
"2023-11-27 13:00",20.7895419362453,"Working","OW517"
"2023-11-27 14:00",20.7875402944397,"Working","OW517"
"2023-11-27 15:00",20.7845386526342,"Working","OW517"
"2023-11-27 16:00",20.7835370108286,"Working","OW517"
"2023-11-27 17:00",20.782535369023,"Working","OW517"
"2023-11-27 18:00",20.7835337272174,"Working","OW517"
"2023-11-27 19:00",20.7835320854119,"Working","OW517"
"2023-11-27 20:00",20.7845304436063,"Working","OW517"
"2023-11-27 21:00",20.7835288018007,"Working","OW517"
"2023-11-27 22:00",20.7825271599952,"Working","OW517"
"2023-11-27 23:00",20.7835255181896,"Working","OW517"
"2023-11-28 00:00",20.783523876384,"Working","OW517"
"2023-11-28 01:00",20.7835222345784,"Working","OW517"
"2023-11-28 02:00",20.7835205927729,"Working","OW517"
"2023-11-28 03:00",20.7835189509673,"Working","OW517"
"2023-11-28 04:00",20.7845173091617,"Working","OW517"
"2023-11-28 05:00",20.7845156673562,"Working","OW517"
"2023-11-28 06:00",20.7845140255506,"Working","OW517"
"2023-11-28 07:00",20.785512383745,"Working","OW517"
"2023-11-28 08:00",20.7855107419394,"Working","OW517"
"2023-11-28 09:00",20.7835091001339,"Working","OW517"
"2023-11-28 10:00",20.7805074583283,"Working","OW517"
"2023-11-28 11:00",20.7785058165227,"Working","OW517"
"2023-11-28 12:00",20.7765041747171,"Working","OW517"
"2023-11-28 13:00",20.7735025329116,"Working","OW517"
"2023-11-28 14:00",20.770500891106,"Working","OW517"
"2023-11-28 15:00",20.7684992493004,"Working","OW517"
"2023-11-28 16:00",20.7674976074949,"Working","OW517"
"2023-11-28 17:00",20.7674959656893,"Working","OW517"
"2023-11-28 18:00",20.7684943238837,"Working","OW517"
"2023-11-28 19:00",20.7694926820781,"Working","OW517"
"2023-11-28 20:00",20.7694910402726,"Working","OW517"
"2023-11-28 21:00",20.768489398467,"Working","OW517"
"2023-11-28 22:00",20.7684877566614,"Working","OW517"
"2023-11-28 23:00",20.7674861148559,"Working","OW517"
"2023-11-29 00:00",20.7674844730503,"Working","OW517"
"2023-11-29 01:00",20.7674828312447,"Working","OW517"
"2023-11-29 02:00",20.7664811894391,"Working","OW517"
"2023-11-29 03:00",20.7664795476336,"Working","OW517"
"2023-11-29 04:00",20.767477905828,"Working","OW517"
"2023-11-29 05:00",20.7684762640224,"Working","OW517"
"2023-11-29 06:00",20.7694746222168,"Working","OW517"
"2023-11-29 07:00",20.7714729804113,"Working","OW517"
"2023-11-29 08:00",20.7714713386057,"Working","OW517"
"2023-11-29 09:00",20.7714696968001,"Working","OW517"
"2023-11-29 10:00",20.7714680549946,"Working","OW517"
"2023-11-29 11:00",20.769466413189,"Working","OW517"
"2023-11-29 12:00",20.7674647713834,"Working","OW517"
"2023-11-29 13:00",20.7654631295778,"Working","OW517"
"2023-11-29 14:00",20.7634614877723,"Working","OW517"
"2023-11-29 15:00",20.7624598459667,"Working","OW517"
"2023-11-29 16:00",20.7614582041611,"Working","OW517"
"2023-11-29 17:00",20.7614565623555,"Working","OW517"
"2023-11-29 18:00",20.76345492055,"Working","OW517"
"2023-11-29 19:00",20.7634532787444,"Working","OW517"
"2023-11-29 20:00",20.7624516369388,"Working","OW517"
"2023-11-29 21:00",20.7624499951333,"Working","OW517"
"2023-11-29 22:00",20.7624483533277,"Working","OW517"
"2023-11-29 23:00",20.7624467115221,"Working","OW517"
"2023-11-30 00:00",20.7614450697165,"Working","OW517"
"2023-11-30 01:00",20.761443427911,"Working","OW517"
"2023-11-30 02:00",20.7604417861054,"Working","OW517"
"2023-11-30 03:00",20.7594401442998,"Working","OW517"
"2023-11-30 04:00",20.7594385024943,"Working","OW517"
"2023-11-30 05:00",20.7584368606887,"Working","OW517"
"2023-11-30 06:00",20.7594352188831,"Working","OW517"
"2023-11-30 07:00",20.7584335770775,"Working","OW517"
"2023-11-30 08:00",20.759431935272,"Working","OW517"
"2023-11-30 09:00",20.7574302934664,"Working","OW517"
"2023-11-30 10:00",20.7564286516608,"Working","OW517"
"2023-11-30 11:00",20.7534270098552,"Working","OW517"
"2023-11-30 12:00",20.7494253680497,"Working","OW517"
"2023-11-30 13:00",20.7474237262441,"Working","OW517"
"2023-11-30 14:00",20.7434220844385,"Working","OW517"
"2023-11-30 15:00",20.739420442633,"Working","OW517"
"2023-11-30 16:00",20.7364188008274,"Working","OW517"
"2023-11-30 17:00",20.7344171590218,"Working","OW517"
"2023-11-30 18:00",20.7314155172162,"Working","OW517"
"2023-11-30 19:00",20.7304138754107,"Working","OW517"
"2023-11-30 20:00",20.7274122336051,"Working","OW517"
"2023-11-30 21:00",20.7264105917995,"Working","OW517"
"2023-11-30 22:00",20.7254089499939,"Working","OW517"
"2023-11-30 23:00",20.7244073081884,"Working","OW517"
"2023-12-01 00:00",20.7224056663828,"Working","OW517"
"2023-12-01 01:00",20.7204040245772,"Working","OW517"
"2023-12-01 02:00",20.7174023827717,"Working","OW517"
"2023-12-01 03:00",20.7164007409661,"Working","OW517"
"2023-12-01 04:00",20.7143990991605,"Working","OW517"
"2023-12-01 05:00",20.7123974573549,"Working","OW517"
"2023-12-01 06:00",20.7103958155494,"Working","OW517"
"2023-12-01 07:00",20.7083941737438,"Working","OW517"
"2023-12-01 08:00",20.7063925319382,"Working","OW517"
"2023-12-01 09:00",20.7043908901327,"Working","OW517"
"2023-12-01 10:00",20.7013892483271,"Working","OW517"
"2023-12-01 11:00",20.6993876065215,"Working","OW517"
"2023-12-01 12:00",20.6953859647159,"Working","OW517"
"2023-12-01 13:00",20.6913843229104,"Working","OW517"
"2023-12-01 14:00",20.6873826811048,"Working","OW517"
"2023-12-01 15:00",20.6843810392992,"Working","OW517"
"2023-12-01 16:00",20.6803793974936,"Working","OW517"
"2023-12-01 17:00",20.6773777556881,"Working","OW517"
"2023-12-01 18:00",20.6753761138825,"Working","OW517"
"2023-12-01 19:00",20.6733744720769,"Working","OW517"
"2023-12-01 20:00",20.6713728302714,"Working","OW517"
"2023-12-01 21:00",20.6683711884658,"Working","OW517"
"2023-12-01 22:00",20.6673695466602,"Working","OW517"
"2023-12-01 23:00",20.6653679048546,"Working","OW517"
"2023-12-02 00:00",20.6653662630491,"Working","OW517"
"2023-12-02 01:00",20.6623646212435,"Working","OW517"
"2023-12-02 02:00",20.6603629794379,"Working","OW517"
"2023-12-02 03:00",20.6573613376324,"Working","OW517"
"2023-12-02 04:00",20.6533596958268,"Working","OW517"
"2023-12-02 05:00",20.6513580540212,"Working","OW517"
"2023-12-02 06:00",20.6473564122156,"Working","OW517"
"2023-12-02 07:00",20.6453547704101,"Working","OW517"
"2023-12-02 08:00",20.6423531286045,"Working","OW517"
"2023-12-02 09:00",20.6403514867989,"Working","OW517"
"2023-12-02 10:00",20.6393498449933,"Working","OW517"
"2023-12-02 11:00",20.6363482031878,"Working","OW517"
"2023-12-02 12:00",20.6343465613822,"Working","OW517"
"2023-12-02 13:00",20.6323449195766,"Working","OW517"
"2023-12-02 14:00",20.6293432777711,"Working","OW517"
"2023-12-02 15:00",20.6273416359655,"Working","OW517"
"2023-12-02 16:00",20.6263399941599,"Working","OW517"
"2023-12-02 17:00",20.6263383523543,"Working","OW517"
"2023-12-02 18:00",20.6253367105488,"Working","OW517"
"2023-12-02 19:00",20.6293350687432,"Working","OW517"
"2023-12-02 20:00",20.6283334269376,"Working","OW517"
"2023-12-02 21:00",20.6303317851321,"Working","OW517"
"2023-12-02 22:00",20.6313301433265,"Working","OW517"
"2023-12-02 23:00",20.6343285015209,"Working","OW517"
"2023-12-03 00:00",20.6353268597153,"Working","OW517"
"2023-12-03 01:00",20.6363252179098,"Working","OW517"
"2023-12-03 02:00",20.6383235761042,"Working","OW517"
"2023-12-03 03:00",20.6393219342986,"Working","OW517"
"2023-12-03 04:00",20.640320292493,"Working","OW517"
"2023-12-03 05:00",20.6413186506875,"Working","OW517"
"2023-12-03 06:00",20.6433170088819,"Working","OW517"
"2023-12-03 07:00",20.6453153670763,"Working","OW517"
"2023-12-03 08:00",20.6463137252708,"Working","OW517"
"2023-12-03 09:00",20.6463120834652,"Working","OW517"
"2023-12-03 10:00",20.6453104416596,"Working","OW517"
"2023-12-03 11:00",20.644308799854,"Working","OW517"
"2023-12-03 12:00",20.6443071580485,"Working","OW517"
"2023-12-03 13:00",20.6433055162429,"Working","OW517"
"2023-12-03 14:00",20.6423038744373,"Working","OW517"
"2023-12-03 15:00",20.6363022326317,"Working","OW517"
"2023-12-03 16:00",20.6303005908262,"Working","OW517"
"2023-12-03 17:00",20.6272989490206,"Working","OW517"
"2023-12-03 18:00",20.625297307215,"Working","OW517"
"2023-12-03 19:00",20.6222956654095,"Working","OW517"
"2023-12-03 20:00",20.6222940236039,"Working","OW517"
"2023-12-03 21:00",20.6252923817983,"Working","OW517"
"2023-12-03 22:00",20.6272907399927,"Working","OW517"
"2023-12-03 23:00",20.6302890981872,"Working","OW517"
"2023-12-04 00:00",20.6332874563816,"Working","OW517"
"2023-12-04 01:00",20.635285814576,"Working","OW517"